,,Stat6,,Stat2,,Stat8,,Stat9,,Stat10,,Wind1,,Wind1,
time,status,PA1M_AVG,status,PR1M_SUM,status,RH1M_AVG,status,SR1M_AVG,status,TA1M_AVG,status,W1dAve1m,status,W1sAve1m,
2005-06-13, 00:00:00,VALID,918.252,VALID,0,VALID,99.999,VALID,0.0169808,VALID,20.1515,VALID,185,VALID,0.147675,
2005-06-13, 00:01:00,VALID,918.232,VALID,0,VALID,99.9453,VALID,-0.0169808,VALID,20.1232,VALID,185,VALID,0.15191,
2005-06-13, 00:02:00,VALID,918.214,VALID,0,VALID,100,VALID,-0.0509425,VALID,20.1272,VALID,185,VALID,0.0125,
2005-06-13, 00:03:00,VALID,918.194,VALID,0,VALID,100,VALID,-0.0679233,VALID,20.1337,VALID,185,VALID,0.132813,
2005-06-13, 00:04:00,VALID,918.163,VALID,0,VALID,100,VALID,-0.0679233,VALID,20.1307,VALID,185,VALID,0.101207,
2005-06-13, 00:05:00,VALID,918.151,VALID,0,VALID,100,VALID,-0.0849042,VALID,20.131,VALID,185,VALID,0.00363372,
2005-06-13, 00:06:00,VALID,918.131,VALID,0,VALID,100,VALID,-0.101885,VALID,20.1474,VALID,185,VALID,0.0372869,
2005-06-13, 00:07:00,VALID,918.1,VALID,0,VALID,100,VALID,-0.0509425,VALID,20.1372,VALID,185,VALID,0.00114329,
2005-06-13, 00:08:00,VALID,918.071,VALID,0,VALID,100,VALID,-0.0679233,VALID,20.1401,VALID,185,VALID,0.162946,
2005-06-13, 00:09:00,VALID,918.056,VALID,0,VALID,100,VALID,-0.101885,VALID,20.1307,VALID,185,VALID,0.315662,
2005-06-13, 00:10:00,VALID,918.043,VALID,0,VALID,100,VALID,-0.0339617,VALID,20.1121,VALID,185,VALID,0.251172,
2005-06-13, 00:11:00,VALID,918.036,VALID,0,VALID,99.9354,VALID,-0.0509425,VALID,20.0825,VALID,185,VALID,0.346946,
2005-06-13, 00:12:00,VALID,918.024,VALID,0,VALID,99.9456,VALID,-0.0679233,VALID,20.0699,VALID,185,VALID,0.242188,
2005-06-13, 00:13:00,VALID,918.023,VALID,0,VALID,99.9954,VALID,-0.101885,VALID,20.0666,VALID,185,VALID,0.0602134,
2005-06-13, 00:14:00,VALID,918.014,VALID,0,VALID,100,VALID,-0.0849042,VALID,20.0892,VALID,185,VALID,0,
2005-06-13, 00:15:00,VALID,918.011,VALID,0,VALID,100,VALID,-0.0849042,VALID,20.092,VALID,185,VALID,0,
2005-06-13, 00:16:00,VALID,918.004,VALID,0,VALID,100,VALID,-0.0339617,VALID,20.1103,VALID,185,VALID,0.0154297,
2005-06-13, 00:17:00,VALID,917.997,VALID,0,VALID,100,VALID,0.0169808,VALID,20.1424,VALID,185,VALID,0,
2005-06-13, 00:18:00,VALID,917.98,VALID,0,VALID,100,VALID,0.0509425,VALID,20.1709,VALID,185,VALID,0,
2005-06-13, 00:19:00,VALID,917.975,VALID,0,VALID,100,VALID,0,VALID,20.2002,VALID,185,VALID,0,
2005-06-13, 00:20:00,VALID,917.965,VALID,0,VALID,100,VALID,0.0169808,VALID,20.2261,VALID,185,VALID,0,
2005-06-13, 00:21:00,VALID,917.953,VALID,0,VALID,100,VALID,0.0169808,VALID,20.2452,VALID,185,VALID,0,
2005-06-13, 00:22:00,VALID,917.926,VALID,0,VALID,100,VALID,0.0849042,VALID,20.2126,VALID,185,VALID,0,
2005-06-13, 00:23:00,VALID,917.917,VALID,0,VALID,100,VALID,0.0339617,VALID,20.2102,VALID,185,VALID,0,
2005-06-13, 00:24:00,VALID,917.917,VALID,0,VALID,99.9858,VALID,0.0849042,VALID,20.1868,VALID,185,VALID,0,
2005-06-13, 00:25:00,VALID,917.906,VALID,0,VALID,99.9761,VALID,0.0509425,VALID,20.1806,VALID,185,VALID,0,
2005-06-13, 00:26:00,VALID,917.887,VALID,0,VALID,100,VALID,0.0679233,VALID,20.1779,VALID,185,VALID,0,
2005-06-13, 00:27:00,VALID,917.878,VALID,0,VALID,100,VALID,0,VALID,20.1779,VALID,185,VALID,0,
2005-06-13, 00:28:00,VALID,917.864,VALID,0,VALID,100,VALID,0.0679233,VALID,20.1744,VALID,185,VALID,0,
2005-06-13, 00:29:00,VALID,917.858,VALID,0,VALID,100,VALID,0.0339617,VALID,20.1876,VALID,185,VALID,0,
2005-06-13, 00:30:00,VALID,917.853,VALID,0,VALID,100,VALID,0.0849042,VALID,20.1908,VALID,185,VALID,0.0650436,
2005-06-13, 00:31:00,VALID,917.849,VALID,0,VALID,99.9756,VALID,0.0169808,VALID,20.1677,VALID,185,VALID,0,
2005-06-13, 00:32:00,VALID,917.841,VALID,0,VALID,99.9112,VALID,0,VALID,20.1483,VALID,185,VALID,0,
2005-06-13, 00:33:00,VALID,917.837,VALID,0,VALID,99.9621,VALID,0.0169808,VALID,20.1486,VALID,185,VALID,0,
2005-06-13, 00:34:00,VALID,917.841,VALID,0,VALID,99.9952,VALID,-0.0169808,VALID,20.1451,VALID,185,VALID,0,
2005-06-13, 00:35:00,VALID,917.838,VALID,0,VALID,100,VALID,-0.0169808,VALID,20.1685,VALID,185,VALID,0,
2005-06-13, 00:36:00,VALID,917.829,VALID,0,VALID,100,VALID,0.0169808,VALID,20.1682,VALID,185,VALID,0,
2005-06-13, 00:37:00,VALID,917.828,VALID,0,VALID,100,VALID,0,VALID,20.1679,VALID,185,VALID,0,
2005-06-13, 00:38:00,VALID,917.833,VALID,0,VALID,100,VALID,-0.0169808,VALID,20.1617,VALID,185,VALID,0,
2005-06-13, 00:39:00,VALID,917.815,VALID,0,VALID,100,VALID,-0.0169808,VALID,20.1943,VALID,185,VALID,0,
2005-06-13, 00:40:00,VALID,917.816,VALID,0,VALID,100,VALID,0,VALID,20.204,VALID,185,VALID,0,
2005-06-13, 00:41:00,VALID,917.797,VALID,0,VALID,100,VALID,0,VALID,20.2228,VALID,185,VALID,0.223133,
2005-06-13, 00:42:00,VALID,917.791,VALID,0,VALID,100,VALID,0,VALID,20.2427,VALID,185,VALID,0.327217,
2005-06-13, 00:43:00,VALID,917.769,VALID,0,VALID,100,VALID,-0.0169808,VALID,20.2427,VALID,185,VALID,0.301953,
2005-06-13, 00:44:00,VALID,917.755,VALID,0,VALID,100,VALID,0.0169808,VALID,20.2489,VALID,185,VALID,0.217634,
2005-06-13, 00:45:00,VALID,917.74,VALID,0,VALID,100,VALID,0,VALID,20.2718,VALID,185,VALID,0.219283,
2005-06-13, 00:46:00,VALID,917.726,VALID,0,VALID,100,VALID,0,VALID,20.268,VALID,185,VALID,0.247713,
2005-06-13, 00:47:00,VALID,917.719,VALID,0,VALID,100,VALID,-0.0169808,VALID,20.275,VALID,185,VALID,0.259859,
2005-06-13, 00:48:00,VALID,917.712,VALID,0,VALID,100,VALID,0,VALID,20.2651,VALID,185,VALID,0.0927083,
2005-06-13, 00:49:00,VALID,917.695,VALID,0,VALID,100,VALID,0,VALID,20.2554,VALID,185,VALID,0,
2005-06-13, 00:50:00,VALID,917.687,VALID,0,VALID,100,VALID,0,VALID,20.2452,VALID,185,VALID,0,
2005-06-13, 00:51:00,VALID,917.665,VALID,0,VALID,99.9354,VALID,0,VALID,20.2422,VALID,185,VALID,0,
2005-06-13, 00:52:00,VALID,917.653,VALID,0,VALID,99.7675,VALID,0,VALID,20.2097,VALID,185,VALID,0,
2005-06-13, 00:53:00,VALID,917.641,VALID,0,VALID,99.62,VALID,0,VALID,20.1843,VALID,185,VALID,0,
2005-06-13, 00:54:00,VALID,917.634,VALID,0,VALID,99.4916,VALID,0,VALID,20.1513,VALID,185,VALID,0,
2005-06-13, 00:55:00,VALID,917.619,VALID,0,VALID,99.4026,VALID,0,VALID,20.1163,VALID,185,VALID,0.294727,
2005-06-13, 00:56:00,VALID,917.602,VALID,0,VALID,99.5094,VALID,0,VALID,20.0974,VALID,185,VALID,0.391533,
2005-06-13, 00:57:00,VALID,917.591,VALID,0,VALID,99.7167,VALID,0,VALID,20.1009,VALID,185,VALID,0.341332,
2005-06-13, 00:58:00,VALID,917.565,VALID,0,VALID,99.9718,VALID,0.0339617,VALID,20.1001,VALID,185,VALID,0.286005,
2005-06-13, 00:59:00,VALID,917.536,VALID,0,VALID,100,VALID,0.0169808,VALID,20.1265,VALID,185,VALID,0.333984,
2005-06-13, 01:00:00,VALID,917.512,VALID,0,VALID,100,VALID,0,VALID,20.1523,VALID,185,VALID,0.371911,
2005-06-13, 01:01:00,VALID,917.491,VALID,0,VALID,100,VALID,0,VALID,20.1841,VALID,184,VALID,0.361235,
2005-06-13, 01:02:00,VALID,917.481,VALID,0,VALID,100,VALID,0.0169808,VALID,20.2266,VALID,119,VALID,0.570313,
2005-06-13, 01:03:00,VALID,917.466,VALID,0,VALID,100,VALID,0,VALID,20.2591,VALID,106,VALID,0.679324,
2005-06-13, 01:04:00,VALID,917.453,VALID,0,VALID,100,VALID,0.0169808,VALID,20.2782,VALID,106,VALID,0.871982,
2005-06-13, 01:05:00,VALID,917.443,VALID,0,VALID,100,VALID,0,VALID,20.2879,VALID,106,VALID,1.01181,
2005-06-13, 01:06:00,VALID,917.419,VALID,0,VALID,100,VALID,0.0169808,VALID,20.2904,VALID,117,VALID,1.00721,
2005-06-13, 01:07:00,VALID,917.402,VALID,0,VALID,100,VALID,0.0169808,VALID,20.2907,VALID,126,VALID,0.881288,
2005-06-13, 01:08:00,VALID,917.379,VALID,0,VALID,99.9832,VALID,0,VALID,20.268,VALID,129,VALID,0.790923,
2005-06-13, 01:09:00,VALID,917.346,VALID,0,VALID,99.9214,VALID,0.0169808,VALID,20.2554,VALID,127,VALID,0.846726,
2005-06-13, 01:10:00,VALID,917.324,VALID,0,VALID,99.9377,VALID,0,VALID,20.2293,VALID,117,VALID,0.771439,
2005-06-13, 01:11:00,VALID,917.292,VALID,0,VALID,99.9929,VALID,0.0169808,VALID,20.2164,VALID,108,VALID,0.734896,
2005-06-13, 01:12:00,VALID,917.266,VALID,0,VALID,100,VALID,0,VALID,20.2035,VALID,120,VALID,1.29961,
2005-06-13, 01:13:00,VALID,917.242,VALID,0,VALID,100,VALID,0,VALID,20.201,VALID,121,VALID,0.808499,
2005-06-13, 01:14:00,VALID,917.215,VALID,0,VALID,100,VALID,0,VALID,20.1747,VALID,124,VALID,1.03848,
2005-06-13, 01:15:00,VALID,917.184,VALID,0,VALID,100,VALID,0.0169808,VALID,20.1488,VALID,126,VALID,1.02567,
2005-06-13, 01:16:00,VALID,917.16,VALID,0,VALID,100,VALID,-0.0169808,VALID,20.1168,VALID,121,VALID,1.07773,
2005-06-13, 01:17:00,VALID,917.124,VALID,0,VALID,100,VALID,0,VALID,20.0808,VALID,120,VALID,1.05208,
2005-06-13, 01:18:00,VALID,917.088,VALID,0,VALID,100,VALID,0,VALID,20.0646,VALID,130,VALID,1.20945,
2005-06-13, 01:19:00,VALID,917.07,VALID,0,VALID,100,VALID,-0.0169808,VALID,20.0552,VALID,137,VALID,1.33524,
2005-06-13, 01:20:00,VALID,917.055,VALID,0,VALID,100,VALID,-0.0169808,VALID,20.0323,VALID,127,VALID,1.22713,
2005-06-13, 01:21:00,VALID,917.049,VALID,0,VALID,100,VALID,0,VALID,20.043,VALID,131,VALID,1.07213,
2005-06-13, 01:22:00,VALID,917.036,VALID,0,VALID,100,VALID,0.0169808,VALID,20.0261,VALID,126,VALID,1.05538,
2005-06-13, 01:23:00,VALID,917.029,VALID,0,VALID,100,VALID,0,VALID,20.0202,VALID,129,VALID,1.21373,
2005-06-13, 01:24:00,VALID,917.019,VALID,0,VALID,100,VALID,-0.0169808,VALID,20.0008,VALID,131,VALID,0.914435,
2005-06-13, 01:25:00,VALID,917.006,VALID,0,VALID,100,VALID,0,VALID,19.9978,VALID,118,VALID,0.880327,
2005-06-13, 01:26:00,VALID,916.988,VALID,0,VALID,100,VALID,-0.0169808,VALID,19.9906,VALID,127,VALID,1.35795,
2005-06-13, 01:27:00,VALID,916.976,VALID,0,VALID,100,VALID,0,VALID,20.0107,VALID,116,VALID,0.857422,
2005-06-13, 01:28:00,VALID,916.95,VALID,0,VALID,100,VALID,0.0169808,VALID,19.9938,VALID,108,VALID,1.07885,
2005-06-13, 01:29:00,VALID,916.937,VALID,0,VALID,100,VALID,0,VALID,20.0105,VALID,107,VALID,0.709635,
2005-06-13, 01:30:00,VALID,916.935,VALID,0,VALID,100,VALID,0.0169808,VALID,20,VALID,108,VALID,0.456577,
2005-06-13, 01:31:00,VALID,916.92,VALID,0,VALID,100,VALID,0.0339617,VALID,20.0003,VALID,106,VALID,0.330305,
2005-06-13, 01:32:00,VALID,916.901,VALID,0,VALID,100,VALID,0.0509425,VALID,19.9968,VALID,106,VALID,0.366655,
2005-06-13, 01:33:00,VALID,916.889,VALID,0,VALID,100,VALID,0.0339617,VALID,20.0038,VALID,106,VALID,0.507431,
2005-06-13, 01:34:00,VALID,916.872,VALID,0,VALID,100,VALID,0.0169808,VALID,20.0129,VALID,106,VALID,0.463246,
2005-06-13, 01:35:00,VALID,916.861,VALID,0,VALID,100,VALID,0.0509425,VALID,20.0095,VALID,97,VALID,0.619606,
2005-06-13, 01:36:00,VALID,916.849,VALID,0,VALID,100,VALID,0.0509425,VALID,20.0092,VALID,65,VALID,0.831676,
2005-06-13, 01:37:00,VALID,916.856,VALID,0,VALID,100,VALID,0.0339617,VALID,20.0102,VALID,47,VALID,1.08874,
2005-06-13, 01:38:00,VALID,916.85,VALID,0,VALID,100,VALID,0.0679233,VALID,20.0033,VALID,54,VALID,1.01126,
2005-06-13, 01:39:00,VALID,916.853,VALID,0,VALID,100,VALID,0.0509425,VALID,19.9965,VALID,69,VALID,0.843369,
2005-06-13, 01:40:00,VALID,916.838,VALID,0,VALID,100,VALID,0.0339617,VALID,19.9807,VALID,90,VALID,0.784784,
2005-06-13, 01:41:00,VALID,916.84,VALID,0,VALID,100,VALID,0.101885,VALID,19.9938,VALID,87,VALID,0.797049,
2005-06-13, 01:42:00,VALID,916.841,VALID,0,VALID,100,VALID,0.0509425,VALID,20.003,VALID,87,VALID,0.781059,
2005-06-13, 01:43:00,VALID,916.833,VALID,0,VALID,100,VALID,0.0339617,VALID,20.0326,VALID,92,VALID,0.645952,
2005-06-13, 01:44:00,VALID,916.835,VALID,0,VALID,100,VALID,0.0339617,VALID,20.0584,VALID,96,VALID,0.461632,
2005-06-13, 01:45:00,VALID,916.822,VALID,0,VALID,100,VALID,0.0679233,VALID,20.0974,VALID,100,VALID,0.474964,
2005-06-13, 01:46:00,VALID,916.823,VALID,0,VALID,100,VALID,-0.0509425,VALID,20.1106,VALID,100,VALID,0.463423,
2005-06-13, 01:47:00,VALID,916.814,VALID,0,VALID,100,VALID,-0.0509425,VALID,20.1302,VALID,100,VALID,0.164236,
2005-06-13, 01:48:00,VALID,916.823,VALID,0,VALID,100,VALID,-0.0679233,VALID,20.1531,VALID,100,VALID,0.0104167,
2005-06-13, 01:49:00,VALID,916.835,VALID,0,VALID,100,VALID,-0.0339617,VALID,20.166,VALID,100,VALID,0.0284598,
2005-06-13, 01:50:00,VALID,916.844,VALID,0,VALID,100,VALID,-0.0679233,VALID,20.1856,VALID,100,VALID,0.0681818,
2005-06-13, 01:51:00,VALID,916.857,VALID,0,VALID,100,VALID,-0.0849042,VALID,20.1918,VALID,100,VALID,0,
2005-06-13, 01:52:00,VALID,916.862,VALID,0,VALID,100,VALID,-0.0679233,VALID,20.2149,VALID,100,VALID,0,
2005-06-13, 01:53:00,VALID,916.886,VALID,0,VALID,100,VALID,-0.0509425,VALID,20.2278,VALID,100,VALID,0,
2005-06-13, 01:54:00,VALID,916.891,VALID,0,VALID,100,VALID,-0.101885,VALID,20.2375,VALID,100,VALID,0.0112847,
2005-06-13, 01:55:00,VALID,916.903,VALID,0,VALID,100,VALID,-0.0509425,VALID,20.237,VALID,100,VALID,0.216704,
2005-06-13, 01:56:00,VALID,916.905,VALID,0,VALID,100,VALID,-0.0509425,VALID,20.244,VALID,100,VALID,0.241146,
2005-06-13, 01:57:00,VALID,916.9,VALID,0,VALID,100,VALID,-0.0509425,VALID,20.2276,VALID,100,VALID,0.181212,
2005-06-13, 01:58:00,VALID,916.891,VALID,0,VALID,100,VALID,-0.0849042,VALID,20.2209,VALID,100,VALID,0.054497,
2005-06-13, 01:59:00,VALID,916.897,VALID,0,VALID,100,VALID,-0.0679233,VALID,20.2209,VALID,100,VALID,0,
2005-06-13, 02:00:00,VALID,916.893,VALID,0,VALID,100,VALID,-0.0509425,VALID,20.241,VALID,100,VALID,0,
2005-06-13, 02:01:00,VALID,916.889,VALID,0,VALID,100,VALID,-0.0339617,VALID,20.2363,VALID,100,VALID,0.0121951,
2005-06-13, 02:02:00,VALID,916.879,VALID,0,VALID,100,VALID,0.0339617,VALID,20.2457,VALID,100,VALID,0,
2005-06-13, 02:03:00,VALID,916.878,VALID,0,VALID,100,VALID,0.0169808,VALID,20.2584,VALID,100,VALID,0,
2005-06-13, 02:04:01,VALID,916.881,VALID,0,VALID,100,VALID,0.0339617,VALID,20.2586,VALID,100,VALID,0,
2005-06-13, 02:05:00,VALID,916.873,VALID,0,VALID,100,VALID,0.0509425,VALID,20.2514,VALID,100,VALID,0.037234,
2005-06-13, 02:06:00,VALID,916.854,VALID,0,VALID,100,VALID,0.0339617,VALID,20.2581,VALID,100,VALID,0.00208333,
2005-06-13, 02:07:00,VALID,916.829,VALID,0,VALID,100,VALID,0.0509425,VALID,20.2579,VALID,100,VALID,0.189732,
2005-06-13, 02:08:00,VALID,916.812,VALID,0,VALID,100,VALID,0.0339617,VALID,20.2449,VALID,97,VALID,0.384375,
2005-06-13, 02:09:00,VALID,916.808,VALID,0,VALID,100,VALID,0.0339617,VALID,20.2516,VALID,83,VALID,0.586806,
2005-06-13, 02:10:00,VALID,916.784,VALID,0,VALID,100,VALID,0.0339617,VALID,20.2387,VALID,71,VALID,0.664244,
2005-06-13, 02:11:00,VALID,916.769,VALID,0,VALID,100,VALID,0.0509425,VALID,20.2328,VALID,70,VALID,0.657738,
2005-06-13, 02:12:00,VALID,916.75,VALID,0,VALID,100,VALID,0.0509425,VALID,20.2226,VALID,73,VALID,0.639258,
2005-06-13, 02:13:00,VALID,916.741,VALID,0,VALID,100,VALID,0.0169808,VALID,20.2226,VALID,87,VALID,0.710029,
2005-06-13, 02:14:00,VALID,916.735,VALID,0,VALID,100,VALID,0.0339617,VALID,20.2196,VALID,88,VALID,0.712003,
2005-06-13, 02:15:01,VALID,916.733,VALID,0,VALID,100,VALID,0.0849042,VALID,20.2223,VALID,88,VALID,0.700218,
2005-06-13, 02:16:00,VALID,916.739,VALID,0,VALID,100,VALID,-0.0509425,VALID,20.2365,VALID,88,VALID,0.575838,
2005-06-13, 02:17:00,VALID,916.755,VALID,0,VALID,100,VALID,-0.0509425,VALID,20.2467,VALID,88,VALID,0.571733,
2005-06-13, 02:18:01,VALID,916.746,VALID,0,VALID,100,VALID,-0.0849042,VALID,20.2432,VALID,88,VALID,0.454268,
2005-06-13, 02:19:00,VALID,916.752,VALID,0,VALID,100,VALID,-0.0339617,VALID,20.2435,VALID,83,VALID,0.711107,
2005-06-13, 02:20:01,VALID,916.743,VALID,0,VALID,100,VALID,-0.0849042,VALID,20.2338,VALID,73,VALID,0.969618,
2005-06-13, 02:21:00,VALID,916.751,VALID,0,VALID,100,VALID,-0.0849042,VALID,20.2308,VALID,64,VALID,1.00888,
2005-06-13, 02:22:00,VALID,916.758,VALID,0,VALID,100,VALID,-0.0679233,VALID,20.2408,VALID,64,VALID,0.86319,
2005-06-13, 02:23:00,VALID,916.752,VALID,0,VALID,100,VALID,-0.0509425,VALID,20.237,VALID,64,VALID,0.511979,
2005-06-13, 02:24:00,VALID,916.756,VALID,0,VALID,100,VALID,-0.0679233,VALID,20.2204,VALID,64,VALID,0.329368,
2005-06-13, 02:25:00,VALID,916.757,VALID,0,VALID,100,VALID,-0.0509425,VALID,20.2171,VALID,64,VALID,0.438542,
2005-06-13, 02:26:01,VALID,916.763,VALID,0,VALID,100,VALID,-0.0169808,VALID,20.2147,VALID,64,VALID,0.491815,
2005-06-13, 02:27:00,VALID,916.768,VALID,0,VALID,100,VALID,0,VALID,20.1849,VALID,51,VALID,0.643601,
2005-06-13, 02:28:00,VALID,916.762,VALID,0,VALID,100,VALID,-0.0509425,VALID,20.169,VALID,42,VALID,0.814762,
2005-06-13, 02:29:00,VALID,916.767,VALID,0,VALID,100,VALID,-0.0169808,VALID,20.1657,VALID,42,VALID,0.783296,
2005-06-13, 02:30:00,VALID,916.762,VALID,0,VALID,100,VALID,-0.0339617,VALID,20.1533,VALID,46,VALID,0.685268,
2005-06-13, 02:31:01,VALID,916.755,VALID,0,VALID,100,VALID,-0.0169808,VALID,20.1464,VALID,77,VALID,0.550195,
2005-06-13, 02:32:01,VALID,916.751,VALID,0,VALID,100,VALID,-0.0339617,VALID,20.127,VALID,113,VALID,0.699033,
2005-06-13, 02:33:00,VALID,916.756,VALID,0,VALID,100,VALID,-0.0339617,VALID,20.1307,VALID,125,VALID,0.693824,
2005-06-13, 02:34:00,VALID,916.758,VALID,0,VALID,100,VALID,-0.0339617,VALID,20.1205,VALID,131,VALID,0.640625,
2005-06-13, 02:35:00,VALID,916.752,VALID,0,VALID,100,VALID,0,VALID,20.124,VALID,131,VALID,0.477734,
2005-06-13, 02:36:01,VALID,916.749,VALID,0,VALID,100,VALID,-0.0339617,VALID,20.1339,VALID,122,VALID,0.379724,
2005-06-13, 02:37:00,VALID,916.756,VALID,0,VALID,100,VALID,-0.0339617,VALID,20.1208,VALID,116,VALID,0.385045,
2005-06-13, 02:38:00,VALID,916.761,VALID,0,VALID,100,VALID,-0.0339617,VALID,20.1079,VALID,115,VALID,0.651526,
2005-06-13, 02:39:00,VALID,916.757,VALID,0,VALID,100,VALID,-0.0339617,VALID,20.1275,VALID,110,VALID,0.575893,
2005-06-13, 02:40:00,VALID,916.77,VALID,0,VALID,100,VALID,-0.0169808,VALID,20.1272,VALID,103,VALID,0.338368,
2005-06-13, 02:41:01,VALID,916.776,VALID,0,VALID,100,VALID,-0.0339617,VALID,20.1339,VALID,103,VALID,0.139323,
2005-06-13, 02:42:01,VALID,916.777,VALID,0,VALID,100,VALID,-0.0169808,VALID,20.1332,VALID,103,VALID,0.368641,
2005-06-13, 02:43:00,VALID,916.764,VALID,0,VALID,100,VALID,-0.0339617,VALID,20.156,VALID,103,VALID,0.334794,
2005-06-13, 02:44:00,VALID,916.749,VALID,0,VALID,100,VALID,-0.0169808,VALID,20.1595,VALID,103,VALID,0.206845,
2005-06-13, 02:45:01,VALID,916.734,VALID,0,VALID,100,VALID,-0.0339617,VALID,20.1595,VALID,103,VALID,0.284884,
2005-06-13, 02:46:00,VALID,916.721,VALID,0,VALID,100,VALID,-0.0509425,VALID,20.1662,VALID,103,VALID,0.00502232,
2005-06-13, 02:47:00,VALID,916.704,VALID,0,VALID,100,VALID,-0.0169808,VALID,20.1692,VALID,103,VALID,0,
2005-06-13, 02:48:00,VALID,916.688,VALID,0,VALID,100,VALID,-0.0509425,VALID,20.1752,VALID,103,VALID,0,
2005-06-13, 02:49:00,VALID,916.678,VALID,0,VALID,100,VALID,-0.0509425,VALID,20.1854,VALID,103,VALID,0,
2005-06-13, 02:50:01,VALID,916.649,VALID,0,VALID,100,VALID,-0.0339617,VALID,20.1684,VALID,103,VALID,0,
2005-06-13, 02:51:01,VALID,916.621,VALID,0,VALID,100,VALID,0,VALID,20.1854,VALID,103,VALID,0.106357,
2005-06-13, 02:52:00,VALID,916.608,VALID,0,VALID,100,VALID,-0.0679233,VALID,20.1789,VALID,103,VALID,0.227628,
2005-06-13, 02:53:00,VALID,916.603,VALID,0,VALID,100,VALID,-0.0849042,VALID,20.1849,VALID,103,VALID,0.245908,
2005-06-13, 02:54:00,VALID,916.611,VALID,0,VALID,100,VALID,-0.0339617,VALID,20.2013,VALID,103,VALID,0.0695312,
2005-06-13, 02:55:00,VALID,916.609,VALID,0,VALID,100,VALID,-0.0339617,VALID,20.2117,VALID,103,VALID,0.111111,
2005-06-13, 02:56:01,VALID,916.607,VALID,0,VALID,100,VALID,-0.0339617,VALID,20.1851,VALID,103,VALID,0,
2005-06-13, 02:57:00,VALID,916.609,VALID,0,VALID,100,VALID,0,VALID,20.1849,VALID,103,VALID,0.00362043,
2005-06-13, 02:58:00,VALID,916.61,VALID,0,VALID,100,VALID,-0.0679233,VALID,20.1983,VALID,103,VALID,0.0239955,
2005-06-13, 02:59:00,VALID,916.597,VALID,0,VALID,100,VALID,-0.0339617,VALID,20.2241,VALID,103,VALID,0,
2005-06-13, 03:00:01,VALID,916.606,VALID,0,VALID,100,VALID,0,VALID,20.2532,VALID,103,VALID,0,
2005-06-13, 03:01:00,VALID,916.615,VALID,0,VALID,100,VALID,-0.0169808,VALID,20.2564,VALID,103,VALID,0.0958807,
2005-06-13, 03:02:01,VALID,916.618,VALID,0,VALID,100,VALID,-0.0849042,VALID,20.2634,VALID,103,VALID,0,
2005-06-13, 03:03:01,VALID,916.619,VALID,0,VALID,100,VALID,0,VALID,20.2427,VALID,103,VALID,0,
2005-06-13, 03:04:01,VALID,916.617,VALID,0,VALID,100,VALID,-0.0169808,VALID,20.2499,VALID,103,VALID,0.00545058,
2005-06-13, 03:05:00,VALID,916.613,VALID,0,VALID,100,VALID,0,VALID,20.2462,VALID,103,VALID,0.207403,
2005-06-13, 03:06:01,VALID,916.621,VALID,0,VALID,100,VALID,-0.0509425,VALID,20.2465,VALID,103,VALID,0.300959,
2005-06-13, 03:07:00,VALID,916.621,VALID,0,VALID,100,VALID,-0.0339617,VALID,20.2405,VALID,103,VALID,0.295541,
2005-06-13, 03:08:00,VALID,916.617,VALID,0,VALID,100,VALID,-0.0339617,VALID,20.2241,VALID,103,VALID,0.271094,
2005-06-13, 03:09:00,VALID,916.627,VALID,0,VALID,100,VALID,-0.0339617,VALID,20.2174,VALID,102,VALID,0.0720274,
2005-06-13, 03:10:01,VALID,916.627,VALID,0,VALID,100,VALID,-0.0169808,VALID,20.2174,VALID,102,VALID,0.00111607,
2005-06-13, 03:11:00,VALID,916.639,VALID,0,VALID,100,VALID,-0.0679233,VALID,20.2174,VALID,103,VALID,0.146484,
2005-06-13, 03:12:01,VALID,916.648,VALID,0,VALID,100,VALID,-0.0679233,VALID,20.2177,VALID,103,VALID,0.189808,
2005-06-13, 03:13:00,VALID,916.661,VALID,0,VALID,100,VALID,-0.0339617,VALID,20.2179,VALID,103,VALID,0.102515,
2005-06-13, 03:14:00,VALID,916.668,VALID,0,VALID,100,VALID,-0.0509425,VALID,20.2174,VALID,103,VALID,0,
2005-06-13, 03:15:00,VALID,916.661,VALID,0,VALID,100,VALID,-0.0339617,VALID,20.2144,VALID,103,VALID,0,
2005-06-13, 03:16:00,VALID,916.656,VALID,0,VALID,100,VALID,-0.0339617,VALID,20.2082,VALID,103,VALID,0,
2005-06-13, 03:17:00,VALID,916.654,VALID,0,VALID,100,VALID,-0.0509425,VALID,20.2109,VALID,103,VALID,0,
2005-06-13, 03:18:00,VALID,916.66,VALID,0,VALID,100,VALID,-0.0339617,VALID,20.2174,VALID,103,VALID,0,
2005-06-13, 03:19:00,VALID,916.652,VALID,0,VALID,100,VALID,-0.0509425,VALID,20.1945,VALID,103,VALID,0,
2005-06-13, 03:20:00,VALID,916.651,VALID,0,VALID,100,VALID,-0.0509425,VALID,20.2154,VALID,103,VALID,0,
2005-06-13, 03:21:00,VALID,916.644,VALID,0,VALID,100,VALID,-0.0849042,VALID,20.1985,VALID,103,VALID,0,
2005-06-13, 03:22:00,VALID,916.646,VALID,0,VALID,100,VALID,-0.0509425,VALID,20.1956,VALID,103,VALID,0,
2005-06-13, 03:23:01,VALID,916.637,VALID,0,VALID,100,VALID,-0.0509425,VALID,20.1789,VALID,103,VALID,0,
2005-06-13, 03:24:01,VALID,916.62,VALID,0,VALID,100,VALID,-0.0679233,VALID,20.1695,VALID,102,VALID,0,
2005-06-13, 03:25:01,VALID,916.624,VALID,0,VALID,100,VALID,-0.0849042,VALID,20.1829,VALID,103,VALID,0.0708841,
2005-06-13, 03:26:01,VALID,916.62,VALID,0,VALID,100,VALID,-0.0849042,VALID,20.1759,VALID,103,VALID,0.00228659,
2005-06-13, 03:27:00,VALID,916.607,VALID,0,VALID,100,VALID,-0.0679233,VALID,20.1523,VALID,102,VALID,0.109189,
2005-06-13, 03:28:00,VALID,916.632,VALID,0,VALID,100,VALID,-0.0169808,VALID,20.1628,VALID,102,VALID,0.0597747,
2005-06-13, 03:29:01,VALID,916.642,VALID,0,VALID,100,VALID,-0.0679233,VALID,20.1503,VALID,102,VALID,0.056141,
2005-06-13, 03:30:01,VALID,916.669,VALID,0,VALID,100,VALID,-0.0849042,VALID,20.1275,VALID,103,VALID,0.00297619,
2005-06-13, 03:31:00,VALID,916.69,VALID,0,VALID,100,VALID,-0.0849042,VALID,20.1146,VALID,103,VALID,0,
2005-06-13, 03:32:00,VALID,916.69,VALID,0,VALID,100,VALID,-0.101885,VALID,20.1218,VALID,103,VALID,0,
2005-06-13, 03:33:00,VALID,916.692,VALID,0,VALID,100,VALID,-0.0849042,VALID,20.118,VALID,102,VALID,0.179869,
2005-06-13, 03:34:01,VALID,916.714,VALID,0,VALID,100,VALID,-0.101885,VALID,20.1019,VALID,103,VALID,0.00639205,
2005-06-13, 03:35:00,VALID,916.719,VALID,0,VALID,100,VALID,-0.0849042,VALID,20.1089,VALID,103,VALID,0,
2005-06-13, 03:36:01,VALID,916.723,VALID,0,VALID,100,VALID,-0.101885,VALID,20.0954,VALID,103,VALID,0.154204,
2005-06-13, 03:37:00,VALID,916.731,VALID,0,VALID,100,VALID,-0.101885,VALID,20.0984,VALID,103,VALID,0.071766,
2005-06-13, 03:38:00,VALID,916.721,VALID,0,VALID,100,VALID,-0.101885,VALID,20.0858,VALID,103,VALID,0.21892,
2005-06-13, 03:39:00,VALID,916.718,VALID,0,VALID,100,VALID,-0.101885,VALID,20.089,VALID,102,VALID,0.254972,
2005-06-13, 03:40:00,VALID,916.717,VALID,0,VALID,100,VALID,-0.101885,VALID,20.0728,VALID,102,VALID,0.00380609,
2005-06-13, 03:41:01,VALID,916.709,VALID,0,VALID,100,VALID,-0.101885,VALID,20.0758,VALID,102,VALID,0.0383358,